伽利略0102星导航星座 (GSAT0102 (GALILEO-FM2))

导读

GALILEO-FM2是欧洲空间局(ESA)发射的伽利略卫星导航系统卫星,于2011年10月21日发射升空。作为伽利略导航系统早期组网卫星之一,它为系统构建全球高精度定位、导航与授时服务能力奠定了基础。该卫星助力欧洲摆脱对其他导航系统依赖,提升了欧洲在全球卫星导航领域的自主话语权,服务交通、农业、测绘等多领域应用。

Basic Information
目录编号:
37847
目录名称:
GALILEO-FM2
国际标识:
2011-060B
轨道中心:
EARTH
卫星名称:
伽利略0102星
卫星全名:
伽利略0102星导航星座 (GSAT0102 (GALILEO-FM2))
卫星状态:
在轨 (已飞行5349 天)
发射日期:
2011-10-21 UTC
国别 :
(ESA)
星等 :
--
Orbit Information
数据来源 国际轨道数据 AOE轨道数据
星历时间 2026-06-07T17:39:10+0800
5天前
查看轨道信息
2026-06-08T18:00:00+0800
4天前
查看轨道信息
半长轴 29600.089km 29599.996km
偏心率 0.0003434 0.0003416
轨道倾角 57.001° 57.001°
近地点辐角 13.770° 11.577°
升交点赤经 342.027° 341.999°
平近点角 354.526° 259.327°
近地点 23211.787km 23211.747km
远地点 23232.117km 23231.971km
周期 844.694分钟 844.690分钟
每日圈数 1.70476 1.704768
Detailed Information
平衡模式:
三轴稳定
覆盖范围:
全球
运营商:
欧盟空间计划局
运营商所在国:
法国大都会
使用方式:
暂无
Satellite Introduction
伽利略定位系统(Galileo)是一个全球导航卫星系统,于2016年投入使用由欧盟通过ESA创建,由欧盟空间计划局(EUSPA)运营。该系统有两个地面操控站,并且在高纬度地区提供比其他系统更好的定位服务。该卫星仍在工作。
2D Orbit Map
3D Orbit Map
Orbit Altitude Analysis Chart
Orbit Inclination Analysis Chart
Orbit Comprehensive Analysis Chart
View Comprehensive Chart